This demonstration page uses our WeatherBlox Daily Observations layout. Learn more.

Left ArrowRight Arrow

Hourly Observations for October 22, 2021

Temp ( °F °C ) Dew Point ( °F °C ) Humidity (%) Winds ( mph kmh ) Pressure ( in mb ) Visibility ( mi km ) Precip ( " mm )
12:15 am 00:15 Clear 35 1.9 32 -0.1 87 87 N N/A 30.23 1024 10 16 N/A
12:35 am 00:35 Clear 35 1.9 32 -0.1 87 87 N N/A 30.23 1024 10 16 N/A
12:55 am 00:55 Clear 34 0.9 31 -0.4 91 91 N N/A 30.23 1024 10 16 N/A
1:15 am 01:15 Clear 34 1.3 32 undefined 91 91 N N/A 30.21 1023 10 16 N/A
1:35 am 01:35 Clear 34 1.2 32 -0.2 91 91 N N/A 30.22 1023 10 16 N/A
1:55 am 01:55 Clear 33 0.6 31 -0.7 91 91 N N/A 30.22 1023 10 16 N/A
2:15 am 02:15 Clear 32 0.1 31 -0.8 94 94 N N/A 30.23 1024 10 16 N/A
2:35 am 02:35 Clear 33 0.8 31 -0.5 91 91 N N/A 30.21 1023 10 16 N/A
2:55 am 02:55 Clear 33 0.3 31 -0.7 93 93 E 5 7 30.20 1023 10 16 N/A
3:15 am 03:15 Clear 33 0.7 31 -0.5 92 92 E 5 7 30.19 1022 10 16 N/A
3:35 am 03:35 Clear 33 0.6 31 -0.5 92 92 E 6 9 30.18 1022 10 16 N/A
3:55 am 03:55 Clear 33 0.6 31 -0.7 91 91 E 5 7 30.17 1022 10 16 N/A
4:15 am 04:15 Clear 34 1.1 31 -0.4 90 90 E 3 6 30.17 1022 10 16 N/A
4:35 am 04:35 Clear 34 1 31 -0.5 90 90 N N/A 30.17 1022 10 16 N/A
4:55 am 04:55 Clear 34 1.1 31 -0.5 89 89 N N/A 30.17 1022 10 16 N/A
5:15 am 05:15 Clear 32 0.1 30 -1.1 92 92 N N/A 30.18 1022 10 16 N/A
5:35 am 05:35 Clear 33 0.6 31 -0.7 91 91 N N/A 30.16 1021 10 16 N/A
5:55 am 05:55 Clear 32 0.2 30 -1.2 90 90 N N/A 30.16 1021 10 16 N/A
6:15 am 06:15 Clear 32 0.1 30 -1.1 92 92 E 3 6 30.16 1021 10 16 N/A
6:35 am 06:35 Clear 32 0.1 31 -0.8 94 94 E 5 7 30.15 1021 10 16 N/A
6:55 am 06:55 Clear 32 0.1 31 -0.8 94 94 E 6 9 30.15 1021 10 16 N/A
7:15 am 07:15 Clear 33 0.6 31 -0.3 94 94 N N/A 30.14 1021 10 16 N/A
7:35 am 07:35 Clear 34 1 32 -0.2 92 92 N N/A 30.14 1021 10 16 N/A
7:55 am 07:55 Clear 31 -0.7 29 -1.6 94 94 N N/A 30.14 1021 10 16 N/A
8:15 am 08:15 Sunny 31 -0.7 29 -1.5 94 94 N N/A 30.14 1021 10 16 N/A
8:35 am 08:35 Sunny 32 -0.2 30 -1.1 94 94 N N/A 30.13 1020 10 16 N/A
8:55 am 08:55 Sunny 34 1.3 33 0.3 93 93 N N/A 30.11 1020 10 16 N/A
9:15 am 09:15 Sunny 37 2.9 34 1.3 89 89 N N/A 30.11 1020 10 16 N/A
9:35 am 09:35 Sunny 40 4.4 36 2.3 86 86 WNW 3 6 30.09 1019 10 16 N/A
9:55 am 09:55 Sunny 42 5.8 38 3.1 83 83 SW 3 6 30.07 1018 10 16 N/A
10:15 am 10:15 Sunny 45 7.4 39 4 79 79 SSW 6 9 30.06 1018 10 16 N/A
10:35 am 10:35 Sunny 49 9.7 40 4.7 71 71 SSW 6 9 30.01 1016 10 16 N/A
10:55 am 10:55 Sunny 53 11.9 42 5.3 64 64 NW 6 9 29.98 1015 10 16 N/A
11:15 am 11:15 Sunny 57 13.9 41 5 55 55 SSW 5 7 29.96 1014 10 16 N/A
11:35 am 11:35 Sunny 60 15.7 40 4.6 48 48 SSW 8 13 29.93 1014 10 16 N/A
11:55 am 11:55 Sunny 62 16.9 39 3.7 42 42 W 9 15 29.92 1013 10 16 N/A
12:15 pm 12:15 Sunny 63 17.1 39 4 42 42 W 8 13 29.92 1013 10 16 N/A
12:35 pm 12:35 Sunny 64 18 39 4 40 40 W 7 11 29.90 1013 10 16 N/A
12:55 pm 12:55 Sunny 65 18.1 39 4 39 39 W 6 9 29.90 1012 10 16 N/A
1:15 pm 13:15 Sunny 67 19.4 39 4.1 37 37 W 8 13 29.88 1012 10 16 N/A
1:35 pm 13:35 Sunny 68 20.1 39 3.9 35 35 W 6 9 29.87 1012 10 16 N/A
1:55 pm 13:55 Sunny 69 20.6 40 4.2 34 34 WNW 6 9 29.86 1011 10 16 N/A
2:15 pm 14:15 undefined 70 21.2 40 4.5 34 34 WNW 3 6 29.83 1010 10 16 N/A
2:35 pm 14:35 Sunny 71 21.4 40 4.4 33 33 N N/A 29.83 1010 10 16 N/A
2:55 pm 14:55 Sunny 71 21.5 40 4.3 33 33 NNW 3 6 29.82 1010 10 16 N/A
3:15 pm 15:15 Sunny 71 21.5 40 4.5 33 33 N N/A 29.81 1009 10 16 N/A
3:35 pm 15:35 Sunny 72 22 40 4.7 32 32 N N/A 29.80 1009 10 16 N/A
3:55 pm 15:55 Sunny 72 22 41 4.8 33 33 N N/A 29.80 1009 10 16 N/A
4:15 pm 16:15 Sunny 72 22.2 41 5 33 33 N N/A 29.79 1009 10 16 N/A
4:35 pm 16:35 Sunny 73 22.5 41 5.1 32 32 N N/A 29.79 1009 10 16 N/A
4:55 pm 16:55 Sunny 72 22.4 41 4.9 32 32 N N/A 29.79 1009 10 16 N/A
5:15 pm 17:15 Sunny 72 22.3 41 4.9 32 32 N N/A 29.79 1009 10 16 N/A
5:35 pm 17:35 Sunny 72 22.1 41 5 33 33 N N/A 29.78 1009 10 16 N/A
5:55 pm 17:55 Sunny 71 21.5 43 6.3 37 37 ESE 3 6 29.79 1009 10 16 N/A
6:15 pm 18:15 Sunny 69 20.5 42 5.6 38 38 SE 3 6 29.80 1009 10 16 N/A
6:35 pm 18:35 Sunny 68 19.8 41 5 38 38 SE 5 7 29.80 1009 10 16 N/A
6:55 pm 18:55 Clear 65 18.6 41 5.2 42 42 E 6 9 29.81 1010 10 16 N/A
7:15 pm 19:15 Clear 59 15.1 42 5.4 53 53 ENE 8 13 29.86 1011 10 16 N/A
7:35 pm 19:35 Clear 57 14.1 43 6 58 58 E 9 15 29.86 1011 10 16 N/A
7:55 pm 19:55 Clear 56 13.3 43 6 62 62 ENE 12 19 29.87 1012 10 16 N/A
8:15 pm 20:15 Clear 56 13.2 43 6 62 62 ENE 12 19 29.88 1012 10 16 N/A
8:35 pm 20:35 Clear 55 12.8 43 6 64 64 ENE 12 19 29.88 1012 10 16 N/A
8:55 pm 20:55 Clear 54 12.2 42 5.8 65 65 ENE 13 20 29.88 1012 10 16 N/A
9:15 pm 21:15 Clear 53 11.5 42 5.8 68 68 ENE 14 22 29.89 1012 10 16 N/A
9:35 pm 21:35 Clear 52 10.9 42 5.7 71 71 E 14 22 29.90 1013 10 16 N/A
9:55 pm 21:55 Clear 51 10.6 42 5.5 71 71 E 10 17 29.92 1013 10 16 N/A
10:15 pm 22:15 Clear 49 9.7 42 5.3 74 74 E 10 17 29.92 1013 10 16 N/A
10:35 pm 22:35 Clear 49 9.2 41 5.1 76 76 E 12 19 29.93 1013 10 16 N/A
10:55 pm 22:55 Clear 47 8.6 41 4.9 78 78 E 9 15 29.93 1014 10 16 N/A
11:15 pm 23:15 Clear 46 8 40 4.6 79 79 E 9 15 29.94 1014 10 16 N/A
11:35 pm 23:35 Clear 45 7.4 40 4.4 81 81 E 8 13 29.95 1014 10 16 N/A
11:55 pm 23:55 Clear 44 6.9 39 4 82 82 ENE 9 15 29.94 1014 10 16 N/A

Powered by AerisWeather